| time (UTC) | temp C | wind direction | speed KPH | gust KPH | rain 1hr cm | rain 24hr cm | rain mn cm | humidity % | barometer mb |
| 20260506004535 | 27 | 0.0 | 0.0 | 0.00 | 0.00 | 0.00 | 77 | 1005.7 | |
| 20260506003516 | 27 | 0.0 | 0.0 | 0.00 | 0.00 | 0.00 | 76 | 1005.6 | |
| 20260506002515 | 27 | 0.0 | 0.0 | 0.00 | 0.00 | 0.00 | 75 | 1005.7 | |
| 20260506001535 | 27 | 0.0 | 0.0 | 0.00 | 0.00 | 0.00 | 75 | 1005.7 | |
| 20260506000515 | 28 | 0.0 | 1.6 | 0.00 | 0.00 | 0.00 | 74 | 1005.6 | |
| 20260505235535 | 28 | 0.0 | 3.2 | 0.00 | 0.00 | 0.00 | 73 | 1005.6 | |
| 20260505234515 | 28 | 0.0 | 1.6 | 0.00 | 0.00 | 0.00 | 73 | 1005.4 | |
| 20260505233535 | 28 | 0.0 | 3.2 | 0.00 | 0.00 | 0.00 | 72 | 1005.3 | |
| 20260505232517 | 28 | 0.0 | 9.7 | 0.00 | 0.00 | 0.00 | 71 | 1005.2 | |
| 20260505231535 | 28 | 0.0 | 1.6 | 0.00 | 0.00 | 0.00 | 71 | 1005.1 | |
| 20260505230537 | 28 | 0.0 | 1.6 | 0.00 | 0.00 | 0.00 | 72 | 1005.1 | |
| 20260505225515 | 28 | 0.0 | 3.2 | 0.00 | 0.00 | 0.00 | 73 | 1005.1 | |
| 20260505224517 | 28 | 0.0 | 6.4 | 0.00 | 0.00 | 0.00 | 71 | 1005.1 | |
| 20260505223517 | 29 | 0.0 | 1.6 | 0.00 | 0.00 | 0.00 | 70 | 1005.0 | |
| 20260505222517 | 29 | 0.0 | 3.2 | 0.00 | 0.00 | 0.00 | 69 | 1005.0 | |
| 20260505221517 | 29 | 0.0 | 4.8 | 0.00 | 0.00 | 0.00 | 70 | 1005.1 | |
| 20260505220517 | 30 | 0.0 | 4.8 | 0.00 | 0.00 | 0.00 | 69 | 1005.3 | |
| 20260505215537 | 30 | 0.0 | 3.2 | 0.00 | 0.00 | 0.00 | 68 | 1005.4 | |
| 20260505214517 | 30 | 0.0 | 6.4 | 0.00 | 0.00 | 0.00 | 68 | 1005.6 | |
| 20260505213517 | 30 | 0.0 | 8.0 | 0.00 | 0.00 | 0.00 | 66 | 1005.5 | |
| 20260505212517 | 30 | 0.0 | 11.3 | 0.00 | 0.00 | 0.00 | 66 | 1005.8 | |
| 20260505211517 | 30 | 0.0 | 6.4 | 0.00 | 0.00 | 0.00 | 67 | 1006.0 | |
| 20260505210517 | 29 | 225 | 1.6 | 9.7 | 0.00 | 0.00 | 0.00 | 67 | 1006.0 |
| 20260505205517 | 29 | 0.0 | 8.0 | 0.00 | 0.00 | 0.00 | 68 | 1006.1 | |
| 20260505204517 | 29 | 0.0 | 1.6 | 0.00 | 0.00 | 0.00 | 69 | 1006.1 | |
| 20260505203517 | 29 | 0.0 | 3.2 | 0.00 | 0.00 | 0.00 | 70 | 1006.3 | |
| 20260505202517 | 29 | 0.0 | 8.0 | 0.00 | 0.00 | 0.00 | 70 | 1006.4 | |
| 20260505201517 | 29 | 225 | 1.6 | 14.5 | 0.00 | 0.00 | 0.00 | 69 | 1006.6 |
| 20260505200517 | 28 | 0.0 | 4.8 | 0.00 | 0.00 | 0.00 | 72 | 1006.8 | |
| 20260505195517 | 28 | 0.0 | 9.7 | 0.00 | 0.00 | 0.00 | 71 | 1006.9 | |
| 20260505194517 | 28 | 0.0 | 8.0 | 0.00 | 0.00 | 0.00 | 72 | 1007.1 | |
| 20260505193517 | 28 | 0.0 | 8.0 | 0.00 | 0.00 | 0.00 | 72 | 1007.2 | |
| 20260505192517 | 28 | 0.0 | 6.4 | 0.00 | 0.00 | 0.00 | 74 | 1007.2 | |
| 20260505191537 | 28 | 0.0 | 4.8 | 0.00 | 0.00 | 0.00 | 71 | 1007.4 | |
| 20260505190517 | 27 | 0.0 | 3.2 | 0.00 | 0.00 | 0.00 | 73 | 1007.4 | |
| 20260505185518 | 27 | 0.0 | 0.0 | 0.00 | 0.00 | 0.00 | 73 | 1007.3 | |
| 20260505184517 | 27 | 0.0 | 8.0 | 0.00 | 0.00 | 0.00 | 75 | 1007.6 | |
| 20260505183517 | 26 | 0.0 | 4.8 | 0.00 | 0.00 | 0.00 | 76 | 1007.8 | |
| 20260505182517 | 26 | 0.0 | 8.0 | 0.00 | 0.00 | 0.00 | 76 | 1007.8 | |
| 20260505181537 | 26 | 0.0 | 3.2 | 0.00 | 0.00 | 0.00 | 78 | 1008.0 | |
| 20260505180517 | 25 | 0.0 | 6.4 | 0.00 | 0.00 | 0.00 | 78 | 1008.1 | |
| 20260505175517 | 25 | 0.0 | 3.2 | 0.00 | 0.00 | 0.00 | 78 | 1008.1 | |
| 20260505174558 | 25 | 0.0 | 6.4 | 0.00 | 0.00 | 0.00 | 79 | 1008.1 | |
| 20260505173517 | 25 | 0.0 | 6.4 | 0.00 | 0.00 | 0.00 | 78 | 1008.3 | |
| 20260505172517 | 25 | 0.0 | 1.6 | 0.00 | 0.00 | 0.00 | 81 | 1008.4 | |
| 20260505171517 | 25 | 0.0 | 14.5 | 0.00 | 0.00 | 0.00 | 81 | 1008.3 | |
| 20260505170517 | 25 | 0.0 | 1.6 | 0.00 | 0.00 | 0.00 | 81 | 1008.3 | |
| 20260505165517 | 24 | 0.0 | 4.8 | 0.00 | 0.00 | 0.00 | 82 | 1008.3 | |
| 20260505164516 | 24 | 0.0 | 3.2 | 0.00 | 0.00 | 0.00 | 83 | 1008.3 | |
| 20260505163517 | 23 | 0.0 | 8.0 | 0.00 | 0.00 | 0.00 | 84 | 1008.3 | |
| 20260505162517 | 23 | 0.0 | 8.0 | 0.00 | 0.00 | 0.00 | 85 | 1008.1 | |
| 20260505161516 | 23 | 225 | 1.6 | 14.5 | 0.00 | 0.00 | 0.00 | 87 | 1008.3 |
| 20260505160517 | 22 | 0.0 | 8.0 | 0.00 | 0.00 | 0.00 | 87 | 1008.4 | |
| 20260505152516 | 22 | 0.0 | 11.3 | 0.00 | 0.00 | 0.00 | 88 | 1008.4 | |
| 20260505151520 | 22 | 0.0 | 12.9 | 0.00 | 0.00 | 0.00 | 88 | 1008.3 | |
| 20260505150536 | 22 | 0.0 | 4.8 | 0.00 | 0.00 | 0.00 | 88 | 1008.2 | |
| 20260505140516 | 22 | 0.0 | 8.0 | 0.00 | 0.00 | 0.00 | 89 | 1007.9 | |
| 20260505124536 | 21 | 0.0 | 8.0 | 0.00 | 0.00 | 0.00 | 90 | 1007.3 | |
| 20260505123536 | 21 | 0.0 | 11.3 | 0.00 | 0.00 | 0.00 | 90 | 1007.1 | |
| 20260505122516 | 21 | 0.0 | 6.4 | 0.00 | 0.00 | 0.00 | 90 | 1006.9 | |
| 20260505121516 | 21 | 0.0 | 8.0 | 0.00 | 0.00 | 0.00 | 90 | 1006.8 | |
| 20260505120516 | 21 | 0.0 | 4.8 | 0.00 | 0.00 | 0.00 | 90 | 1006.6 | |
| 20260505115536 | 21 | 0.0 | 1.6 | 0.00 | 0.00 | 0.00 | 89 | 1006.6 | |
| 20260505114516 | 21 | 0.0 | 3.2 | 0.00 | 0.00 | 0.00 | 89 | 1006.7 | |
| 20260505113516 | 21 | 0.0 | 8.0 | 0.00 | 0.00 | 0.00 | 89 | 1006.8 | |
| 20260505112516 | 21 | 0.0 | 8.0 | 0.00 | 0.00 | 0.00 | 89 | 1006.5 | |
| 20260505111516 | 21 | 0.0 | 6.4 | 0.00 | 0.00 | 0.00 | 89 | 1006.6 | |
| 20260505110516 | 21 | 225 | 1.6 | 9.7 | 0.00 | 0.00 | 0.00 | 89 | 1006.9 |
| 20260505101516 | 21 | 0.0 | 3.2 | 0.00 | 0.00 | 0.00 | 88 | 1007.2 | |
| 20260505100516 | 21 | 0.0 | 3.2 | 0.00 | 0.00 | 0.00 | 88 | 1007.2 | |
| 20260505095539 | 21 | 0.0 | 1.6 | 0.00 | 0.00 | 0.00 | 88 | 1007.0 | |
| 20260505094516 | 21 | 0.0 | 1.6 | 0.00 | 0.00 | 0.00 | 87 | 1007.0 | |
| 20260505093516 | 21 | 0.0 | 0.0 | 0.00 | 0.00 | 0.00 | 87 | 1007.2 | |
| 20260505092516 | 21 | 0.0 | 8.0 | 0.00 | 0.00 | 0.00 | 87 | 1007.0 | |
| 20260505091516 | 21 | 0.0 | 3.2 | 0.00 | 0.00 | 0.00 | 87 | 1007.3 | |
| 20260505090516 | 21 | 0.0 | 8.0 | 0.00 | 0.00 | 0.00 | 87 | 1007.4 | |
| 20260505085516 | 21 | 0.0 | 3.2 | 0.00 | 0.00 | 0.00 | 87 | 1007.2 | |
| 20260505084516 | 21 | 0.0 | 11.3 | 0.00 | 0.00 | 0.00 | 88 | 1007.5 | |
| 20260505083516 | 21 | 0.0 | 17.7 | 0.00 | 0.00 | 0.00 | 88 | 1007.4 | |
| 20260505082516 | 21 | 0.0 | 9.7 | 0.00 | 0.00 | 0.00 | 88 | 1007.7 | |
| 20260505081516 | 21 | 0.0 | 17.7 | 0.00 | 0.00 | 0.00 | 88 | 1007.6 | |
| 20260505080516 | 21 | 0.0 | 9.7 | 0.00 | 0.00 | 0.00 | 88 | 1007.7 | |
| 20260505075516 | 21 | 0.0 | 3.2 | 0.00 | 0.00 | 0.00 | 87 | 1007.7 | |
| 20260505074536 | 21 | 0.0 | 12.9 | 0.00 | 0.00 | 0.00 | 87 | 1007.9 | |
| 20260505073516 | 21 | 0.0 | 6.4 | 0.00 | 0.00 | 0.00 | 87 | 1007.9 | |
| 20260505072516 | 21 | 0.0 | 11.3 | 0.00 | 0.00 | 0.00 | 87 | 1008.2 | |
| 20260505071516 | 21 | 0.0 | 4.8 | 0.00 | 0.00 | 0.00 | 87 | 1008.4 | |
| 20260505070516 | 21 | 225 | 1.6 | 12.9 | 0.00 | 0.00 | 0.00 | 87 | 1008.4 |
| 20260505065516 | 21 | 0.0 | 11.3 | 0.00 | 0.00 | 0.00 | 87 | 1008.5 | |
| 20260505064515 | 21 | 0.0 | 11.3 | 0.00 | 0.00 | 0.00 | 87 | 1008.5 | |
| 20260505063515 | 21 | 225 | 1.6 | 19.3 | 0.00 | 0.00 | 0.00 | 87 | 1008.6 |
| 20260505062515 | 21 | 0.0 | 4.8 | 0.00 | 0.00 | 0.00 | 87 | 1008.8 | |
| 20260505061515 | 21 | 0.0 | 11.3 | 0.00 | 0.00 | 0.00 | 87 | 1008.9 | |
| 20260505060535 | 21 | 0.0 | 3.2 | 0.00 | 0.00 | 0.00 | 86 | 1008.9 | |
| 20260505055536 | 21 | 0.0 | 16.1 | 0.00 | 0.00 | 0.00 | 86 | 1008.9 | |
| 20260505054515 | 21 | 0.0 | 4.8 | 0.00 | 0.00 | 0.00 | 86 | 1008.8 | |
| 20260505053515 | 21 | 0.0 | 4.8 | 0.00 | 0.00 | 0.00 | 86 | 1008.8 | |
| 20260505052515 | 21 | 0.0 | 12.9 | 0.00 | 0.00 | 0.00 | 87 | 1008.8 | |
| 20260505051515 | 21 | 0.0 | 9.7 | 0.00 | 0.00 | 0.00 | 87 | 1008.8 | |
| 20260505050536 | 21 | 0.0 | 11.3 | 0.00 | 0.00 | 0.00 | 87 | 1008.7 | |
| 20260505041516 | 22 | 0.0 | 0.0 | 0.00 | 0.00 | 0.00 | 85 | 1008.7 | |
| 20260505040516 | 22 | 0.0 | 0.0 | 0.00 | 0.00 | 0.00 | 84 | 1008.7 | |
| 20260505035516 | 22 | 0.0 | 3.2 | 0.00 | 0.00 | 0.00 | 83 | 1008.8 | |
| 20260505034516 | 22 | 0.0 | 1.6 | 0.00 | 0.00 | 0.00 | 82 | 1008.7 | |
| 20260505033516 | 23 | 0.0 | 3.2 | 0.00 | 0.00 | 0.00 | 81 | 1008.6 | |
| 20260505032515 | 23 | 0.0 | 3.2 | 0.00 | 0.00 | 0.00 | 81 | 1008.6 | |
| 20260505031536 | 23 | 0.0 | 1.6 | 0.00 | 0.00 | 0.00 | 80 | 1008.6 | |
| 20260505030516 | 23 | 0.0 | 6.4 | 0.00 | 0.00 | 0.00 | 80 | 1008.7 | |
| 20260505025516 | 23 | 0.0 | 1.6 | 0.00 | 0.00 | 0.00 | 79 | 1008.7 | |
| 20260505024516 | 23 | 0.0 | 1.6 | 0.00 | 0.00 | 0.00 | 79 | 1008.6 | |
| 20260505023516 | 23 | 0.0 | 1.6 | 0.00 | 0.00 | 0.00 | 78 | 1008.5 | |
| 20260505022536 | 23 | 0.0 | 0.0 | 0.00 | 0.00 | 0.00 | 77 | 1008.4 | |
| 20260505021516 | 23 | 0.0 | 6.4 | 0.00 | 0.00 | 0.00 | 76 | 1008.3 | |
| 20260505020517 | 24 | 0.0 | 3.2 | 0.00 | 0.00 | 0.00 | 75 | 1008.3 | |
| 20260505015516 | 24 | 0.0 | 1.6 | 0.00 | 0.00 | 0.00 | 74 | 1008.4 | |
| 20260505014517 | 24 | 0.0 | 6.4 | 0.00 | 0.00 | 0.00 | 73 | 1008.3 | |
| 20260505013516 | 24 | 0.0 | 0.0 | 0.00 | 0.00 | 0.00 | 72 | 1008.3 | |
| 20260505012516 | 25 | 0.0 | 0.0 | 0.00 | 0.00 | 0.00 | 70 | 1008.2 | |
| 20260505011517 | 25 | 0.0 | 4.8 | 0.00 | 0.00 | 0.00 | 69 | 1008.1 | |
| 20260505010516 | 25 | 0.0 | 12.9 | 0.00 | 0.00 | 0.00 | 68 | 1008.1 | |
| 20260505005516 | 25 | 0.0 | 6.4 | 0.00 | 0.00 | 0.00 | 67 | 1008.0 |